Flag for Greece Weather past 2 weeks in Chania, Crete, Greece

Now
68 °F

Passing clouds.


Feels Like: 68 °F
Forecast: 58 / 71 °F
Wind: 16 mph from Southeast

Location: Souda Airport

Current Time: Apr 25, 2015 at 11:13:28 PM

Latest Report: Apr 25, 2015 at 10:20 PM


Visibility: N/A

Pressure: 29.92 "Hg

Humidity: 43%

Dew point: 45 °F

Location of ChaniaLocation

Historic Weather in Chania — Graph

°F

Chania temperature yesterday

Maximum temperature yesterday: 70 °F (at 2:50 PM)
Minimum temperature yesterday: 50 °F (at 1:50 AM)
Average temperature yesterday: 60 °F

Past Weeks' High & Low Weather Summary

 TemperatureHumidityPressure
High79 °F (Apr 18, 12:50 PM)100% (Apr 20, 1:50 AM)30.30 "Hg (Apr 20, 1:50 AM)
Low48 °F (Apr 11, 11:50 PM)23% (Apr 17, 3:50 PM)29.80 "Hg (Apr 19, 5:50 PM)
Average61 °F63%30.10 "Hg
* Reported Apr 10 9:20 PM — Apr 25 9:50 PM, Chania, Weather by CustomWeather, © 2015

Note: Actual official high and low records may vary slightly from our data, if they occured in-between our weather recording intervals... More about our weather records

Advertising

Chania weather history for previous 24 hours

 ConditionsComfort  
Time TempWeatherWind HumidityBarometerVisibility
9:50 PM
Sat, Apr 25
66 °FPassing clouds.14 mph43%29.89 "HgN/A
9:20 PM66 °FPassing clouds.14 mph43%29.89 "HgN/A
8:50 PM66 °FScattered clouds.16 mph43%29.89 "HgN/A
8:20 PM68 °FScattered clouds.16 mph38%29.92 "HgN/A
7:50 PM68 °FScattered clouds.18 mph38%29.92 "HgN/A
7:20 PM72 °FScattered clouds.14 mph33%29.92 "HgN/A
6:50 PM73 °FScattered clouds.16 mph31%29.92 "HgN/A
6:20 PM73 °FScattered clouds.12 mph41%29.92 "HgN/A
5:50 PM73 °FScattered clouds.9 mph41%29.92 "HgN/A
5:20 PM75 °FScattered clouds.7 mph47%29.95 "HgN/A
4:50 PM75 °FScattered clouds.5 mph47%29.95 "HgN/A
4:20 PM75 °FPartly sunny.5 mph44%29.95 "HgN/A
3:50 PM75 °FPartly sunny.7 mph44%29.95 "HgN/A
3:20 PM75 °FPartly sunny.12 mph44%29.98 "HgN/A
2:50 PM75 °FPartly sunny.9 mph44%29.98 "HgN/A
2:20 PM75 °FPartly sunny.7 mph47%30.01 "HgN/A
1:50 PM75 °FPartly sunny.5 mph47%30.01 "HgN/A
1:20 PM73 °FScattered clouds.9 mph53%30.04 "HgN/A
12:50 PM75 °FScattered clouds.9 mph50%30.04 "HgN/A
12:20 PM72 °FScattered clouds.9 mph47%30.04 "HgN/A
11:50 AM70 °FPartly sunny.18 mph46%30.04 "HgN/A
11:20 AM68 °FPartly sunny.17 mph46%30.07 "HgN/A
10:50 AM66 °FPartly sunny.16 mph49%30.07 "HgN/A
10:20 AM64 °FScattered clouds.16 mph56%30.07 "HgN/A
9:50 AM63 °FScattered clouds.14 mph64%30.07 "HgN/A
9:20 AM63 °FScattered clouds.12 mph73%30.07 "HgN/A
8:50 AM61 °FBroken clouds.12 mph72%30.09 "HgN/A
8:20 AM59 °FBroken clouds.6 mph82%30.09 "HgN/A
7:50 AM59 °FBroken clouds.6 mph82%30.09 "HgN/A
7:20 AM57 °FPassing clouds.7 mph82%30.09 "HgN/A
6:50 AM57 °FPassing clouds.7 mph82%30.09 "HgN/A
6:20 AM57 °FPassing clouds.5 mph82%30.09 "HgN/A
5:50 AM57 °FPassing clouds.5 mph82%30.09 "HgN/A
5:20 AM57 °FPassing clouds.3 mph88%30.07 "HgN/A
4:50 AM57 °FPassing clouds.3 mph88%30.07 "HgN/A
4:20 AM59 °FPassing clouds.6 mph82%30.09 "HgN/A
3:50 AM59 °FPassing clouds.6 mph82%30.09 "HgN/A
3:20 AM59 °FPassing clouds.No wind82%30.09 "HgN/A
2:50 AM59 °FPassing clouds.No wind82%30.09 "HgN/A
2:20 AM59 °FPassing clouds.No wind82%30.12 "HgN/A
1:50 AM59 °FPassing clouds.No wind82%30.12 "HgN/A
1:20 AM59 °FPassing clouds.3 mph77%30.12 "HgN/A
12:50 AM59 °FPassing clouds.3 mph77%30.12 "HgN/A
12:20 AM59 °FPassing clouds.5 mph77%30.12 "HgN/A
11:50 PM
Fri, Apr 24
59 °FPassing clouds.5 mph77%30.12 "HgN/A
11:20 PM59 °FPassing clouds.8 mph77%30.12 "HgN/A
Weather by CustomWeather, © 2015

See weather overviewHow to use our weather pages